Location: Newark
(0.5300°S, 127.4800°E)
Time: 05:18:49
(UTC+00:00)

Vanguard 3 - Pass Details

Date: 22 September 2019
Orbit: 508 x 3262 km, 33.3° (Epoch: 15 October)

Event Time Altitude Azimuth Distance (km) Brightness Sun altitude
Rises 09:34:11 0° 280° (W) 5,690 13.8 -2.8°
Reaches altitude 10° 09:39:44 10° 267° (W) 4,112 12.7 -4.2°
Maximum altitude 09:46:48 21° 223° (SW) 2,576 10.3 -6.0°
Drops below altitude 10° 09:51:44 10° 175° (S) 2,733 9.8 -7.2°
Sets 09:54:33 0° 158° (SSE) 3,361 10.1 -7.9°
